Regional Weather Roundup
Issued by NWS Little Rock, AR

Home | Current Version | Previous Version | Text Only | Print | Product List | Glossary Off
Versions: 1 2 3 4 5 6 7 8 9 10 11 12 13 14 15 16 17 18 19 20 21 22 23 24 25 26 27 28

000
ASUS44 KLZK 280505
RWRLZK

WEATHER ROUNDUP FOR ARKANSAS
NATIONAL WEATHER SERVICE LITTLE ROCK AR
1200 AM CDT THU JUL 28 2016

NOTE: "FAIR" INDICATES FEW OR NO CLOUDS BELOW 12,000 FEET WITH NO
SIGNIFICANT WEATHER AND/OR OBSTRUCTIONS TO VISIBILITY.

ARZ001-003-010-029-280600-
NORTHWEST ARKANSAS

CITY           SKY/WX    TMP DP  RH WIND       PRES   REMARKS
FAYETTEVILLE   PTCLDY    70  70 100 W3        29.98R
FORT SMITH     MOCLDY    79  72  79 CALM      29.93R
HARRISON       MOCLDY    74  71  91 CALM      29.98S
BENTONVILLE    CLOUDY    72  66  83 S5        29.98S
ROGERS         PTCLDY    70  69  97 CALM      29.98S
SILOAM SPGS    MOCLDY    72  63  73 CALM      29.99R
HIGHFILL       MOCLDY    71  71 100 CALM      29.97S
$$

ARZ004-005-016-280600-
NORTH CENTRAL ARKANSAS

CITY           SKY/WX    TMP DP  RH WIND       PRES   REMARKS
BATESVILLE     CLOUDY    73  72  94 S3        29.94R
FLIPPIN        CLOUDY    73  70  88 CALM      29.92R
MTN HOME       MOCLDY    72  72 100 CALM      29.96R
$$

ARZ040-041-280600-
WEST CENTRAL ARKANSAS

CITY           SKY/WX    TMP DP  RH WIND       PRES   REMARKS
MENA             N/A    N/A N/A N/A MISG        N/A
MOUNT IDA      MOCLDY    74  74 100 CALM      29.92F FOG
$$

ARZ009-017-025-026-028-280600-
NORTHEAST ARKANSAS

CITY           SKY/WX    TMP DP  RH WIND       PRES   REMARKS
CORNING          N/A     75  75 100 NE6       29.92F
JONESBORO      PTCLDY    76  75  97 CALM      29.91S
NEWPORT        CLOUDY    76  76 100 CALM      29.94R
WALNUT RIDGE   MOCLDY    75  73  94 NE3       29.91S
BLYTHEVILLE    CLOUDY    77  77 100 NE3       29.93S
$$

ARZ022-023-033-042-044-280600-
CENTRAL ARKANSAS

CITY           SKY/WX    TMP DP  RH WIND       PRES   REMARKS
LITTLE ROCK    MOCLDY    78  74  87 S3        29.93R
N LITTLE ROCK    N/A     75  74  96 CALM      29.90R
JACKSONVILLE   MOCLDY    76  76 100 CALM      29.92R
SEARCY         PTCLDY    75  75 100 CALM      29.95R
HOT SPRINGS    CLOUDY    76  73  91 CALM      29.94F
RUSSELLVILLE   CLOUDY    76  75  97 CALM      29.92R
$$

ARZ036-280600-
EAST ARKANSAS

CITY           SKY/WX    TMP DP  RH WIND       PRES   REMARKS
WEST MEMPHIS   CLOUDY    76  75  97 SE5       29.91R
$$

ARZ050-053-066-070-073-280600-
SOUTHWEST ARKANSAS

CITY           SKY/WX    TMP DP  RH WIND       PRES   REMARKS
ARKADELPHIA    FAIR      74  74 100 CALM      29.93F
CAMDEN         CLOUDY    75  72  88 SW3       29.95R
TEXARKANA      MOCLDY    75  72  90 SW6       29.95F
EL DORADO      CLOUDY    75  74  96 S5        29.96S
DE QUEEN       PTCLDY    75  75 100 CALM      29.94S FOG
$$

ARZ056-057-069-280600-
SOUTHEAST ARKANSAS

CITY           SKY/WX    TMP DP  RH WIND       PRES   REMARKS
PINE BLUFF     CLOUDY    74  72  93 SW6       29.94S
STUTTGART      PTCLDY    75  70  83 SE5       29.93S
MONTICELLO     CLOUDY    76  73  91 SW3       29.95F

$$






USA.gov is the U.S. government's official web portal to all federal, state and local government web resources and services.